Helicity
23 31 34 37 44 54 61 63 60 71 77 73 71 71 76 76 65 49 44 43 43 31 28 12 0 -8 -36 12 52 56 25 -8 17 -29 -65 -74 -71 -31 8 23 6 48 29 21 3 -14 -14
19 30 37 42 47 54 55 62 70 70 71 79 85 76 73 71 71 72 50 21 26 24 21 7 0 14 1 66 46 45 48 41 7 -52 -56 -62 -86 -38 23 4 -7 18 19 22 -6 -22 5
1 5 7 8 21 40 59 61 66 73 79 84 83 85 82 75 79 99 86 37 19 29 18 5 51 49 33 25 33 49 47 27 30 -44 -67 -41 24 -67 -28 -13 -8 11 20 5 9 24 14
-1 5 12 18 22 21 29 46 62 64 70 78 93 96 98 90 100 106 118 69 44 25 -5 17 61 50 30 93 57 14 1 20 36 30 -19 16 -54 16 -7 35 44 -21 11 20 28 47 26
6 7 13 12 22 27 39 42 50 59 67 67 67 81 120 127 127 105 124 113 29 14 36 33 29 36 16 59 -9 25 16 35 38 43 58 19 -48 -63 -68 -88 -28 -20 11 4 48 6 11
13 10 13 20 23 22 32 45 53 54 74 78 77 67 100 122 151 148 139 50 18 14 38 38 53 28 35 42 70 44 23 47 56 23 56 42 31 -95 -125 -86 -37 -12 8 27 -11 -34 -10
19 22 22 23 28 33 36 35 35 46 54 83 84 79 93 114 142 132 93 23 30 38 43 28 61 -8 49 89 116 59 32 36 65 32 36 45 -45 -96 -85 -50 -34 3 -11 9 31 32 8
19 20 23 24 25 20 25 35 42 55 56 71 84 70 103 151 147 98 21 60 87 99 -13 13 36 28 4 46 35 25 72 55 84 88 87 86 -28 -115 -75 -14 -42 20 -23 -6 22 42 14
34 31 20 17 17 17 25 34 38 53 48 64 95 54 78 166 171 34 69 70 79 60 28 12 41 45 68 52 48 31 114 46 68 80 104 136 83 99 10 -57 -65 -39 -11 -38 14 8 6
53 45 44 37 31 27 25 28 32 47 60 69 121 83 61 164 31 117 77 67 58 39 55 72 77 119 72 24 15 16 82 75 56 65 110 116 85 77 108 -8 -28 -46 -31 34 33 44 20
62 59 53 56 51 48 51 51 46 48 48 82 94 119 49 34 93 101 109 60 39 36 103 106 105 54 53 30 65 52 48 45 60 66 115 159 130 152 120 26 2 -73 2 27 43 43 43
53 44 45 60 54 53 52 68 77 79 74 81 107 168 32 2 62 81 46 67 80 107 144 115 94 95 66 15 61 82 61 23 9 41 101 85 103 143 123 111 102 44 43 63 40 48 -9
63 50 53 51 56 63 58 58 64 74 87 104 102 152 103 33 89 76 72 121 147 211 205 137 122 99 98 115 77 60 76 75 97 127 150 114 130 162 143 104 95 83 79 86 94 83 23
73 53 48 44 50 44 41 44 60 69 83 100 147 177 55 42 41 36 141 202 228 224 140 207 110 98 85 106 88 67 73 68 22 49 88 137 170 140 173 119 125 74 61 61 60 76 72
63 55 31 39 49 50 49 55 60 74 85 87 177 68 63 68 21 81 185 277 282 169 183 152 117 108 89 87 166 109 58 62 51 20 30 95 79 55 75 122 115 102 112 39 27 43 43
62 57 45 46 33 44 47 63 63 80 75 102 73 98 81 85 82 110 243 175 150 219 234 135 124 115 140 80 111 89 70 63 49 29 -2 51 112 47 38 62 77 86 111 102 71 58 47
50 42 46 35 30 20 11 38 28 35 48 72 30 128 128 72 71 221 279 207 134 140 171 150 115 98 120 116 110 88 90 70 20 38 11 5 75 47 47 121 123 129 121 115 74 82 57
61 53 49 44 40 21 7 25 17 23 26 -4 40 168 116 45 193 194 196 168 227 189 106 103 132 114 113 103 102 113 133 61 62 6 38 11 48 99 67 28 37 52 97 98 172 122 79
65 59 63 57 59 56 50 47 55 46 38 45 51 81 51 66 260 192 152 180 216 191 135 110 80 103 98 100 92 121 92 66 49 51 27 15 31 64 67 38 62 61 65 68 88 82 106
68 64 62 62 62 56 49 46 46 53 47 55 51 91 39 38 79 179 281 274 235 147 179 133 98 89 78 88 103 169 150 84 76 39 101 108 20 53 71 68 68 61 91 73 72 134 127
55 59 58 47 42 41 38 32 27 37 43 41 106 97 127 179 102 162 173 175 207 243 145 151 146 149 114 123 98 94 129 124 114 86 140 149 103 43 30 41 36 42 53 58 99 83 91
47 43 38 34 28 18 12 -1 26 41 54 44 106 143 157 113 74 75 66 116 103 136 128 211 143 82 119 124 107 114 67 106 128 76 127 121 136 92 56 28 21 39 36 49 59 70 87
37 30 23 11 5 12 17 8 31 56 85 97 68 53 67 81 71 104 103 72 124 145 105 130 228 348 350 259 203 179 172 196 213 139 149 156 99 96 53 21 23 31 32 36 54 38 50
23 18 7 10 13 4 3 -4 7 39 92 105 82 61 50 58 70 62 101 143 95 105 111 146 207 233 195 196 214 130 92 93 106 153 197 219 152 129 87 113 73 54 37 37 40 53 49
18 12 7 11 19 16 8 -2 4 33 75 85 78 115 58 10 47 81 77 66 96 81 47 68 80 145 155 175 137 115 117 99 90 93 92 95 155 113 136 92 83 116 74 36 33 41 38
4 10 4 2 13 2 -6 -1 4 13 59 80 62 115 118 32 14 41 56 63 63 93 70 43 80 96 72 115 128 150 131 108 118 95 79 98 120 177 129 122 82 119 169 231 187 109 53
3 7 5 0 9 6 6 3 9 26 40 77 60 68 89 48 33 23 48 105 104 121 82 79 52 90 64 96 155 113 97 28 81 125 160 145 116 123 154 159 130 194 121 12 52 102 49
8 13 7 4 7 -1 6 -1 5 24 38 60 62 66 105 47 42 47 63 55 48 118 106 67 116 78 121 103 145 91 71 87 69 66 62 138 142 175 183 206 116 181 111 68 138 89 83
-2 22 -6 2 1 3 6 17 18 28 59 36 40 34 61 24 40 46 94 61 41 68 59 69 121 166 136 110 125 128 163 95 96 94 154 97 90 139 126 117 171 103 97 39 88 36 78
Wind_Speed
62 63 64 64 63 64 65 65 65 65 65 66 66 66 67 66 64 57 50 55 63 63 61 60 56 56 49 46 53 32 37 40 1 41 63 61 63 62 62 57 49 54 48 45 43 43 44
65 65 66 66 66 65 66 66 66 66 66 67 67 68 68 68 66 64 59 55 56 61 61 60 46 40 45 60 37 27 22 19 10 41 53 65 61 65 60 61 59 43 47 46 44 43 11
65 66 66 66 66 66 67 67 67 67 68 69 70 69 69 69 69 69 67 64 59 56 49 8 27 28 44 59 40 28 28 46 44 40 47 72 65 57 65 61 61 54 50 41 45 13 20
68 68 69 69 69 69 70 70 70 70 70 70 70 71 71 72 74 74 74 72 68 63 40 23 20 27 48 36 30 40 40 42 38 33 65 60 60 70 69 54 38 57 55 47 15 19 20
71 71 72 72 72 72 73 73 73 73 73 74 73 74 73 74 74 76 75 73 65 43 33 23 26 29 50 26 27 23 21 27 24 19 33 12 37 63 39 45 49 54 56 51 4 10 16
73 73 74 74 74 74 75 76 75 76 76 76 76 78 78 76 76 77 76 66 36 31 29 28 32 35 28 29 17 30 21 20 18 14 15 17 24 36 45 49 54 51 63 30 28 14 8
74 75 75 76 75 76 76 77 77 79 78 79 79 80 80 78 79 77 65 38 36 34 26 31 42 28 36 27 18 26 19 10 21 21 29 25 42 61 46 44 56 65 38 63 68 13 17
75 76 76 78 78 78 77 79 79 81 81 82 81 81 82 81 80 70 46 46 41 43 62 42 21 30 19 28 48 16 5 16 24 38 37 35 53 55 52 27 55 74 58 62 45 36 54
75 73 74 76 78 78 79 80 80 83 82 82 83 82 83 84 77 43 53 36 38 50 50 51 35 34 30 4 20 29 24 16 26 39 46 60 46 53 36 32 39 58 66 39 45 44 63
71 71 72 75 78 79 81 82 80 83 84 83 85 83 82 86 47 57 42 27 46 47 50 40 32 23 15 19 31 14 28 20 31 41 42 63 55 49 56 45 33 53 46 69 60 56 76
75 75 78 79 82 81 82 83 81 83 84 85 84 84 79 67 58 45 39 40 46 35 53 27 19 14 16 19 35 25 7 22 23 31 41 58 57 55 68 53 40 36 49 50 72 66 80
78 77 78 81 82 82 82 83 85 86 86 86 87 88 80 54 44 43 44 43 31 36 37 28 18 15 18 19 28 27 8 15 22 30 40 57 48 66 73 69 80 64 61 55 65 70 95
78 77 78 80 79 80 81 83 85 88 90 91 91 92 81 52 46 36 38 35 40 42 32 30 26 20 26 32 27 21 13 20 24 35 47 50 60 57 66 72 74 73 57 62 71 78 92
74 74 76 78 78 78 80 82 84 87 89 92 97 95 57 46 38 41 38 37 54 46 36 31 30 27 39 33 39 28 26 27 30 33 42 54 74 61 56 77 71 79 66 69 71 71 67
77 74 76 77 77 78 80 82 85 87 88 91 97 66 57 46 30 30 38 55 53 52 51 49 42 48 49 43 46 38 40 39 33 35 48 51 72 45 69 64 75 78 95 81 90 76 88
80 74 75 77 78 79 80 83 84 86 86 91 78 72 57 38 29 34 53 68 56 62 50 50 51 43 53 49 49 46 45 43 42 35 41 48 60 57 50 63 78 91 79 89 95 102 93
77 74 74 77 76 77 73 78 78 79 81 84 65 63 44 39 30 48 69 68 68 76 63 63 57 60 58 58 54 48 48 42 35 32 37 48 48 47 61 78 85 78 94 96 97 98 102
77 78 76 72 73 73 71 74 71 71 75 65 60 64 40 33 57 60 75 71 74 73 69 77 68 69 70 60 57 54 52 43 35 38 39 39 49 61 55 73 71 79 85 82 97 101 103
77 73 72 71 69 70 68 71 69 68 61 66 64 66 49 44 70 71 71 73 73 78 76 70 75 74 68 70 71 70 61 52 48 36 41 39 54 58 62 62 63 94 99 90 93 91 101
75 74 74 73 70 68 66 63 60 59 54 55 57 63 46 41 55 66 72 75 80 69 82 82 78 71 73 76 67 59 56 50 48 46 43 39 48 61 67 62 67 77 93 104 102 116 108
73 72 70 68 64 62 58 57 56 56 51 52 48 58 51 60 51 56 62 70 69 72 72 69 79 78 70 73 69 68 65 49 47 39 34 42 55 55 63 74 65 81 87 90 116 123 122
69 66 64 63 62 58 56 58 55 51 45 50 55 58 57 72 71 72 70 69 69 72 67 70 71 73 80 82 76 74 74 71 68 55 60 51 58 57 71 73 74 83 89 95 93 104 124
66 63 62 60 60 57 55 55 50 37 32 43 45 52 57 65 64 67 71 72 67 59 70 75 71 66 66 65 63 65 65 61 62 64 61 56 57 52 65 54 60 86 95 88 98 97 92
65 61 59 59 56 54 52 54 52 33 17 32 43 44 50 66 63 61 65 68 72 74 81 77 72 74 56 60 70 74 75 75 74 76 66 55 58 65 66 45 71 63 68 81 88 94 84
64 62 61 56 52 47 47 50 52 38 17 13 27 35 46 61 68 69 70 71 72 73 79 82 74 73 68 69 69 73 75 77 83 79 71 62 63 62 63 62 61 62 51 69 81 92 86
65 60 62 58 47 47 43 43 51 37 19 12 13 22 40 58 63 56 63 59 64 67 69 67 63 63 60 64 71 80 78 70 72 64 63 62 62 70 49 61 66 47 48 55 63 89 84
72 61 56 48 46 43 39 40 48 47 31 14 25 4 36 60 70 66 68 61 50 56 58 52 53 55 53 65 74 74 79 65 62 60 55 54 54 60 57 56 54 55 58 45 60 70 66
73 66 40 33 38 32 41 40 42 40 34 24 36 7 20 59 73 77 75 72 60 55 55 45 47 48 55 64 66 66 65 60 67 51 50 57 58 61 55 61 60 54 48 48 60 64 52
56 68 30 26 30 33 55 37 42 35 30 36 43 22 2 59 61 66 70 71 73 77 67 49 48 46 46 54 49 54 61 48 59 59 43 55 61 58 58 63 53 52 47 41 41 31 20
Wind_Direction
343 343 341 339 336 333 332 331 328 321 318 318 315 313 310 307 301 290 282 285 292 291 288 289 284 311 312 307 267 309 298 272 358 159 180 175 177 181 196 227 242 221 235 242 238 238 201
343 341 339 337 335 332 330 327 324 321 321 317 313 312 308 305 299 294 286 282 280 284 282 284 329 342 323 288 313 314 315 312 322 162 173 179 181 184 224 216 206 253 238 246 244 233 228
340 338 338 336 334 331 328 326 324 321 320 319 317 311 306 303 300 296 291 287 279 273 263 248 359 359 321 281 309 307 300 269 264 164 170 187 208 172 200 215 223 238 219 266 246 278 269
338 337 335 335 335 333 331 328 327 324 322 319 314 311 307 304 301 298 295 291 284 281 341 4 17 358 315 336 335 293 285 272 268 261 201 215 178 207 205 233 256 193 204 186 293 116 275
338 337 336 336 335 332 330 329 327 326 324 321 317 312 307 304 300 298 293 288 307 338 351 9 358 347 317 2 336 343 303 282 273 264 259 210 163 183 168 170 175 178 193 186 341 136 285
338 338 339 338 337 336 336 333 328 325 321 320 318 318 313 306 303 300 296 308 342 348 348 346 334 330 328 332 7 332 329 285 270 241 251 201 177 171 174 174 177 172 196 253 146 149 264
343 343 342 341 340 338 338 338 335 329 323 318 316 317 314 309 306 304 315 345 340 337 335 320 316 318 320 330 358 327 328 280 268 241 240 213 183 183 177 178 183 198 167 213 206 259 199
343 341 340 338 336 333 332 330 329 328 326 323 319 318 315 309 306 306 336 329 331 329 311 311 265 231 245 312 300 279 255 268 253 246 242 234 196 184 185 219 188 210 183 187 237 253 236
345 345 343 340 337 335 332 328 327 325 325 324 321 321 320 313 308 335 327 334 340 329 319 316 313 308 313 262 312 300 188 226 251 246 240 244 244 242 231 214 195 188 191 172 217 254 244
347 346 343 340 337 334 331 328 328 327 325 323 320 318 320 317 329 325 328 341 330 332 318 316 315 317 335 332 315 322 183 199 262 251 244 250 244 234 242 234 214 193 187 241 248 248 221
343 341 337 335 332 331 330 328 328 326 324 322 321 319 320 324 317 321 325 330 324 332 312 332 326 346 329 315 319 322 189 194 242 261 241 248 238 238 241 236 227 213 253 254 247 248 238
340 338 336 333 330 330 329 328 325 323 323 321 318 313 316 322 317 313 314 318 326 312 301 311 311 298 310 312 314 320 287 227 265 260 260 254 252 246 245 242 239 245 257 257 254 252 226
335 336 336 334 331 331 328 326 325 322 319 316 314 310 308 308 308 315 312 307 298 283 314 296 291 278 290 297 302 302 266 225 241 251 254 255 250 251 244 240 237 238 243 246 246 247 235
332 333 333 333 331 330 327 326 325 323 321 318 311 305 313 303 304 295 293 284 277 295 271 302 294 281 281 287 289 285 277 254 235 255 264 255 249 239 245 236 233 235 236 244 247 250 256
330 329 330 330 330 330 328 325 324 323 322 319 311 314 307 305 294 288 272 263 278 277 284 276 277 277 275 278 283 284 271 267 249 236 256 258 257 249 244 245 235 236 238 244 250 256 252
332 330 329 329 329 327 326 325 324 322 321 319 315 310 302 300 289 276 267 258 269 276 281 276 270 276 273 269 272 275 272 273 264 244 254 267 266 251 247 246 242 239 241 239 244 246 248
332 331 330 329 328 328 327 326 326 325 324 320 316 307 306 300 280 268 262 263 267 267 271 272 270 269 272 269 270 271 276 271 265 252 252 256 265 264 246 238 237 237 240 241 246 246 248
332 330 329 328 328 328 328 329 329 329 329 326 314 300 311 296 278 271 266 268 271 270 263 265 269 267 265 266 266 264 267 272 269 261 246 248 261 260 259 247 244 243 240 241 242 244 250
331 330 329 328 327 327 327 327 326 327 330 326 309 302 302 286 278 272 272 271 269 266 263 264 258 262 263 262 260 262 262 266 274 267 260 245 253 260 259 252 247 243 241 242 245 250 247
332 331 329 328 327 326 325 325 325 326 327 323 311 302 298 288 279 279 276 273 269 267 263 261 262 260 256 254 256 264 260 259 265 259 273 264 254 253 256 256 250 247 245 244 246 246 249
332 331 331 329 328 327 326 326 324 322 319 315 305 298 296 288 282 282 278 276 272 267 264 262 257 255 252 251 251 251 256 255 259 257 260 264 259 263 261 262 261 253 248 248 246 248 249
332 331 331 331 331 329 328 324 320 320 319 308 302 298 294 283 280 279 275 270 270 265 262 260 256 254 250 250 251 252 252 251 251 252 254 259 263 268 264 264 263 257 253 251 251 252 252
330 330 330 330 331 332 331 327 324 324 324 313 310 301 293 285 279 274 270 266 264 267 261 256 260 259 255 252 257 257 258 257 255 251 253 254 257 265 267 274 269 258 252 253 251 253 254
329 328 328 328 330 330 332 329 322 323 314 315 311 307 297 282 278 273 270 269 267 265 258 259 259 256 257 266 263 257 255 254 252 249 251 255 254 261 263 281 267 273 263 259 256 250 254
330 328 327 327 331 332 330 328 322 324 321 320 320 309 296 284 273 272 270 268 265 267 259 256 259 259 263 260 253 248 248 247 245 245 246 249 253 260 261 267 276 275 284 261 257 253 250
328 329 327 327 332 332 334 330 321 327 324 313 316 314 303 282 273 274 270 272 266 263 262 261 261 262 257 250 243 239 238 241 239 240 241 245 248 253 265 263 264 272 291 285 275 257 252
323 327 328 334 335 338 338 335 323 318 325 323 322 301 302 279 271 271 263 266 276 265 258 266 262 254 250 242 238 237 238 239 237 230 228 233 238 245 255 266 270 273 286 301 267 264 258
320 322 339 344 343 346 339 334 332 326 324 323 306 299 313 276 267 261 257 256 261 260 255 270 263 248 245 238 237 236 239 235 234 233 228 233 238 247 256 263 265 276 282 281 283 275 270
275 302 355 359 357 350 316 339 334 333 337 312 293 312 121 261 264 259 251 247 238 237 253 263 259 253 247 241 243 244 237 242 231 234 243 238 243 250 258 267 272 278 282 285 296 294 290